TimeEST,TemperatureF,Dew PointF,Humidity,Sea Level PressureIn,VisibilityMPH,Wind Direction,Wind SpeedMPH,Gust SpeedMPH,PrecipitationIn,Events,Conditions,WindDirDegrees,DateUTC
12:56 AM,31.1,15.1,52,29.74,10.0,NW,13.8,-,N/A,,Mostly Cloudy,310,2013-03-04 05:56:00
1:56 AM,28.2,14.0,55,29.74,10.0,NW,18.4,-,N/A,,Mostly Cloudy,310,2013-03-04 06:56:00
2:56 AM,28.2,15.1,58,29.74,10.0,WNW,16.1,-,N/A,,Mostly Cloudy,300,2013-03-04 07:56:00
3:56 AM,28.4,15.8,59,29.72,10.0,NW,15.0,-,N/A,,Overcast,310,2013-03-04 08:56:00
4:56 AM,27.1,16.0,63,29.75,10.0,NW,11.5,-,N/A,,Overcast,310,2013-03-04 09:56:00
5:56 AM,27.5,17.1,65,29.76,10.0,NW,11.5,-,N/A,,Overcast,310,2013-03-04 10:56:00
6:56 AM,28.4,17.6,64,29.75,10.0,NW,10.4,23.0,N/A,,Mostly Cloudy,310,2013-03-04 11:56:00
7:56 AM,28.9,18.0,64,29.78,10.0,WNW,21.9,28.8,N/A,,Partly Cloudy,300,2013-03-04 12:56:00
8:56 AM,30.0,17.1,59,29.77,10.0,NW,21.9,31.1,N/A,,Scattered Clouds,310,2013-03-04 13:56:00
9:56 AM,31.1,18.0,58,29.78,10.0,WNW,23.0,27.6,N/A,,Scattered Clouds,300,2013-03-04 14:56:00
10:56 AM,33.8,18.0,52,29.78,10.0,WNW,17.3,26.5,N/A,,Scattered Clouds,300,2013-03-04 15:56:00
11:56 AM,36.5,18.0,47,29.77,10.0,WNW,24.2,32.2,N/A,,Scattered Clouds,300,2013-03-04 16:56:00
12:56 PM,36.7,18.0,47,29.75,10.0,NW,24.2,32.2,N/A,,Partly Cloudy,310,2013-03-04 17:56:00
1:56 PM,37.9,18.0,45,29.75,10.0,WNW,23.0,31.1,N/A,,Partly Cloudy,300,2013-03-04 18:56:00
2:56 PM,37.0,18.0,46,29.76,10.0,WNW,28.8,36.8,N/A,,Clear,300,2013-03-04 19:56:00
3:56 PM,37.0,18.0,46,29.77,10.0,WNW,20.7,27.6,N/A,,Partly Cloudy,290,2013-03-04 20:56:00
4:56 PM,36.0,18.0,48,29.78,10.0,WNW,21.9,31.1,N/A,,Scattered Clouds,300,2013-03-04 21:56:00
5:56 PM,33.1,18.0,54,29.81,10.0,WNW,18.4,32.2,N/A,,Partly Cloudy,300,2013-03-04 22:56:00
6:56 PM,32.0,18.0,56,29.83,10.0,NW,17.3,25.3,N/A,,Clear,310,2013-03-04 23:56:00
7:56 PM,32.0,18.0,56,29.84,10.0,WNW,21.9,29.9,N/A,,Clear,300,2013-03-05 00:56:00
8:56 PM,30.9,18.0,59,29.86,10.0,NW,20.7,25.3,N/A,,Clear,310,2013-03-05 01:56:00
9:56 PM,30.0,17.1,59,29.88,10.0,NW,19.6,28.8,N/A,,Partly Cloudy,320,2013-03-05 02:56:00
10:56 PM,30.0,18.0,61,29.88,10.0,NW,16.1,-,N/A,,Clear,310,2013-03-05 03:56:00
11:56 PM,30.0,18.0,61,29.88,10.0,NW,20.7,27.6,N/A,,Clear,310,2013-03-05 04:56:00